Weather History for KHLC - March, 2014

Change the Weather History Date:

Thursday, March 27, 2014

  Actual Average Record
Temperature  
Mean Temperature 40 °F 45 °F  
Max Temperature 55 °F 59 °F 85 °F (1989)
Min Temperature 25 °F 31 °F 8 °F (1955)
Degree Days  
Heating Degree Days 22    
Moisture  
Dew Point 36 °F    
Average Humidity 67    
Maximum Humidity 86    
Minimum Humidity 38    
Precipitation  
Precipitation 0.00 in 0.07 in 0.55 in (1998)
Month to date precipitation 0.17 1.34  
Year to date precipitation 0.63 2.31  
Sea Level Pressure  
Sea Level Pressure 29.52 in    
Wind  
Wind Speed 15 mph (NNW)    
Max Wind Speed 30 mph    
Max Gust Speed 38 mph    
Visibility 10 miles    
Events      
T = Trace of Precipitation, MM = Missing Value Source: NWS Daily Summary

Daily Weather History Graph

Daily Weather History Graph

Search for Another Location

Airport or City:

Trip Planner

Search our weather history database for the weather conditions in past years. The results will help you decide how hot, cold, wet, or windy it might be!

Date:

Astronomy

Mar. 27, 2014 Rise Set
Actual Time 7:31 AM CDT 7:58 PM CDT
Civil Twilight 7:04 AM CDT 8:25 PM CDT
Nautical Twilight 6:33 AM CDT 8:56 PM CDT
Astronomical Twilight 6:00 AM CDT 9:29 PM CDT
Moon 5:22 AM CDT (3/27) 4:48 PM CDT (3/27)
Length of Visible Light 13h 20m
Length of Day
12h 26m
Waning Crescent, 13% of the Moon is Illuminated
Mar 27
Waning Crescent
Mar 30
New
Apr 7
First Quarter
Apr 15
Full
Apr 22
Last Quarter

Hourly Weather History & Observations

Time (CDT) Temp. Windchill Dew Point Humidity Pressure Visibility Wind Dir Wind Speed Gust Speed Precip Events Conditions
12:53 AM 51.1 °F - 46.0 °F 83% 29.36 in 9.0 mi South 8.1 mph - N/A   Overcast
1:23 AM 52.0 °F - 46.9 °F 83% 29.35 in 10.0 mi South 10.4 mph - N/A   Overcast
1:53 AM 53.1 °F - 46.9 °F 80% 29.30 in 10.0 mi South 15.0 mph 23.0 mph N/A   Scattered Clouds
2:53 AM 53.1 °F - 46.0 °F 77% 29.26 in 10.0 mi SSW 18.4 mph 25.3 mph N/A   Mostly Cloudy
3:53 AM 51.1 °F - 45.0 °F 80% 29.24 in 10.0 mi SSW 13.8 mph - N/A   Clear
4:53 AM 52.0 °F - 41.0 °F 66% 29.26 in 10.0 mi SW 13.8 mph - N/A   Clear
5:53 AM 50.0 °F - 39.0 °F 66% 29.29 in 10.0 mi West 10.4 mph - N/A   Clear
6:53 AM 46.0 °F 41.9 °F 39.9 °F 79% 29.32 in 10.0 mi West 8.1 mph - N/A   Clear
7:53 AM 46.0 °F 41.4 °F 42.1 °F 86% 29.37 in 6.0 mi WNW 9.2 mph - N/A   Mostly Cloudy
8:00 AM 46.0 °F 40.6 °F 42.1 °F 86% 29.37 in 6.0 mi NW 11.5 mph - N/A   Mostly Cloudy
8:22 AM 48.0 °F - 43.0 °F 83% 29.38 in 6.0 mi NW 11.5 mph 20.7 mph N/A   Haze
8:53 AM 48.9 °F - 43.0 °F 80% 29.38 in 9.0 mi NNW 20.7 mph 31.1 mph N/A   Mostly Cloudy
9:07 AM 48.0 °F - 39.9 °F 74% 29.40 in 10.0 mi NNW 19.6 mph 29.9 mph N/A   Scattered Clouds
9:25 AM 46.0 °F 38.0 °F 39.0 °F 76% 29.42 in 10.0 mi NW 21.9 mph 28.8 mph N/A   Mostly Cloudy
9:53 AM 44.1 °F 35.2 °F 36.0 °F 73% 29.46 in 10.0 mi NNW 23.0 mph 34.5 mph N/A   Overcast
10:10 AM 45.0 °F 35.4 °F 35.1 °F 68% 29.47 in 10.0 mi NNW 28.8 mph 38.0 mph N/A   Overcast
10:53 AM 45.0 °F 35.4 °F 34.0 °F 65% 29.51 in 10.0 mi NNW 28.8 mph 38.0 mph N/A   Mostly Cloudy
11:53 AM 48.0 °F - 33.1 °F 56% 29.55 in 10.0 mi NNW 29.9 mph 38.0 mph N/A   Mostly Cloudy
12:00 PM 48.0 °F - 33.1 °F 56% 29.56 in 10.0 mi NNW 24.2 mph 38.0 mph N/A   Scattered Clouds
12:53 PM 48.9 °F - 33.1 °F 54% 29.59 in 10.0 mi NNW 23.0 mph 32.2 mph N/A   Overcast
1:53 PM 52.0 °F - 32.0 °F 47% 29.59 in 10.0 mi NNW 26.5 mph 35.7 mph N/A   Clear
2:53 PM 50.0 °F - 30.9 °F 48% 29.62 in 10.0 mi NNW 19.6 mph 34.5 mph N/A   Clear
3:53 PM 53.1 °F - 28.9 °F 40% 29.65 in 10.0 mi NW 20.7 mph 29.9 mph N/A   Clear
4:53 PM 54.0 °F - 28.9 °F 38% 29.67 in 10.0 mi North 16.1 mph 28.8 mph N/A   Clear
5:53 PM 54.0 °F - 30.0 °F 40% 29.70 in 10.0 mi North 18.4 mph - N/A   Clear
6:53 PM 50.0 °F - 30.0 °F 46% 29.75 in 10.0 mi NNE 15.0 mph - N/A   Clear
7:53 PM 45.0 °F 39.7 °F 30.0 °F 56% 29.81 in 10.0 mi NE 10.4 mph - N/A   Clear
8:53 PM 41.0 °F 36.4 °F 28.9 °F 62% 29.84 in 10.0 mi ENE 6.9 mph - N/A   Clear
9:53 PM 36.0 °F 29.6 °F 28.0 °F 73% 29.89 in 10.0 mi ENE 8.1 mph - N/A   Clear
10:53 PM 32.0 °F 25.6 °F 26.1 °F 79% 29.92 in 9.0 mi ENE 6.9 mph - N/A   Clear
11:53 PM 30.0 °F 23.2 °F 25.0 °F 82% 29.94 in 9.0 mi NE 6.9 mph - N/A   Clear